Progress Software Pre-Tax Profit Margin 2006-2021 | PRGS

Progress Software pre-tax profit margin from 2006 to 2021. Pre-tax profit margin can be defined as earnings before taxes as a portion of total revenue.
Progress Software Pre-Tax Profit Margin Historical Data
Date TTM Revenue TTM Pre-Tax Income Pre-Tax Margin
2021-05-31 $0.48B $0.09B 18.74%
2021-02-28 $0.45B $0.09B 20.75%
2020-11-30 $0.44B $0.10B 21.72%
2020-08-31 $0.44B $0.07B 15.79%
2020-05-31 $0.43B $0.05B 11.75%
2020-02-29 $0.43B $0.04B 9.45%
2019-11-30 $0.41B $0.03B 6.52%
2019-08-31 $0.40B $0.05B 11.65%
2019-05-31 $0.38B $0.05B 13.39%
2019-02-28 $0.37B $0.06B 14.97%
2018-11-30 $0.38B $0.06B 16.09%
2018-08-31 $0.39B $0.07B 17.22%
2018-05-31 $0.39B $0.07B 17.56%
2018-02-28 $0.39B $0.07B 18.07%
2017-11-30 $0.39B $0.05B 13.62%
2017-08-31 $0.40B $-0.03B -6.27%
2017-05-31 $0.40B $-0.03B -7.92%
2017-02-28 $0.41B $-0.04B -9.83%
2016-11-30 $0.41B $-0.04B -8.64%
2016-08-31 $0.40B $0.05B 11.75%
2016-05-31 $0.39B $0.04B 10.69%
2016-02-29 $0.39B $0.03B 6.99%
2015-11-30 $0.38B $0.01B 3.17%
2015-08-31 $0.36B $0.02B 5.51%
2015-05-31 $0.35B $0.03B 8.65%
2015-02-28 $0.34B $0.05B 15.93%
2014-11-30 $0.33B $0.08B 23.42%
2014-08-31 $0.33B $0.08B 23.01%
2014-05-31 $0.33B $0.07B 20.92%
2014-02-28 $0.33B $0.06B 19.02%
2013-11-30 $0.34B $0.06B 18.81%
2013-08-31 $0.33B $0.06B 19.33%
2013-05-31 $0.32B $0.07B 20.19%
2013-02-28 $0.31B $0.06B 20.38%
2012-11-30 $0.32B $0.07B 21.45%
2012-08-31 $0.33B $0.07B 22.19%
2012-05-31 $0.38B $0.08B 19.74%
2012-02-29 $0.44B $0.09B 20.18%
2011-11-30 $0.49B $0.10B 20.08%
2011-08-31 $0.54B $0.10B 18.74%
2011-05-31 $0.54B $0.10B 18.78%
2011-02-28 $0.54B $0.10B 19.03%
2010-11-30 $0.53B $0.07B 13.58%
2010-08-31 $0.52B $0.07B 12.45%
2010-05-31 $0.51B $0.06B 11.52%
2010-02-28 $0.50B $0.04B 8.58%
2009-11-30 $0.49B $0.05B 10.32%
2009-08-31 $0.50B $0.04B 7.26%
2009-05-31 $0.50B $0.05B 9.52%
2009-02-28 $0.52B $0.06B 11.65%
2008-11-30 $0.52B $0.07B 14.34%
2008-08-31 $0.51B $0.08B 16.15%
2008-05-31 $0.51B $0.08B 16.11%
2008-02-29 $0.50B $0.07B 14.37%
2007-11-30 $0.49B $0.07B 13.16%
2007-08-31 $0.48B $0.06B 11.90%
2007-05-31 $0.47B $0.05B 10.90%
2007-02-28 $0.46B $0.05B 10.92%
2006-11-30 $0.45B $0.05B 10.29%
2006-08-31 $0.43B $0.05B 12.47%
2006-05-31 $0.42B $0.05B 12.59%
2006-02-28 $0.41B $0.06B 14.11%
2005-11-30 $0.41B $0.06B 15.56%
Sector Industry Market Cap Revenue
Computer and Technology Computer Software $1.970B $0.442B
Progress offers the leading platform for developing and deploying mission-critical business applications. Progress empowers enterprises and ISVs to build and deliver cognitive-first applications that harness big data to derive business insights and competitive advantage. Progress offers leading technologies for easily building powerful user interfaces across any type of device, a reliable, scalable and secure backend platform to deploy modern applications, leading data connectivity to all sources, and award-winning predictive analytics that brings the power of machine learning to any organization.
Stock Name Country Market Cap PE Ratio
Microsoft (MSFT) United States $2211.632B 36.93
Adobe (ADBE) United States $305.511B 65.84
Salesforce, Inc (CRM) United States $252.797B 75.50
Oracle (ORCL) United States $235.949B 20.37
SAP SE (SAP) Germany $170.971B 21.75
Intuit (INTU) United States $151.402B 73.92
Dassault Systemes SA (DASTY) France $78.076B 68.55
Autodesk (ADSK) United States $62.350B 104.26
VMware (VMW) United States $58.173B 27.35
Synopsys (SNPS) United States $48.999B 66.94
Cadence Design Systems (CDNS) United States $44.542B 62.38
ANSYS (ANSS) United States $31.097B 62.53
SS&C Technologies Holdings (SSNC) United States $17.702B 15.87
Nuance Communications (NUAN) United States $17.355B 153.28
PTC (PTC) United States $14.173B 49.48
Citrix Systems (CTXS) United States $13.703B 32.25
Open Text (OTEX) Canada $13.691B 15.60
Pegasystems (PEGA) United States $10.544B 0.00
Manhattan Associates (MANH) United States $9.893B 105.43
Aspen Technology (AZPN) United States $8.430B 37.40
Trend Micro (TMICY) Japan $7.949B 29.73
Descartes Systems Group (DSGX) Canada $6.981B 99.40
MicroStrategy (MSTR) United States $5.735B 106.40
BlackBerry (BB) Canada $5.347B 235.75
Cornerstone OnDemand (CSOD) United States $3.822B 22.19
ACI Worldwide (ACIW) United States $3.617B 21.09
CommVault Systems (CVLT) United States $3.384B 87.82
Blackbaud (BLKB) United States $3.330B 56.78
Verint Systems (VRNT) United States $2.850B 20.65
QAD (QADB) United States $1.826B 120.75
Bottomline Technologies (EPAY) United States $1.823B 173.70
PROS Holdings (PRO) United States $1.678B 0.00
Sapiens (SPNS) Israel $1.544B 27.63
OptimizeRx (OPRX) United States $1.248B 644.18
Avid Technology (AVID) United States $1.231B 30.68
Canaan (CAN) China $1.153B 0.00
Magic Software Enterprises (MGIC) Israel $0.978B 23.75
Simulations Plus (SLP) United States $0.809B 70.47
American Software (AMSWA) United States $0.793B 85.07
Icad Inc (ICAD) United States $0.258B 0.00
Smith Micro Software (SMSI) United States $0.245B 0.00
ServiceSource (SREV) United States $0.134B 0.00
Park City (PCYG) United States $0.103B 48.18
Neonode (NEON) Sweden $0.070B 0.00
BSQUARE (BSQR) United States $0.046B 0.00
NetSol Technologies (NTWK) United States $0.043B 17.18
GSE Systems (GVP) United States $0.027B 0.00